Regional Weather Roundup
Issued by NWS New Orleans/Baton Rouge, LA

Current Version | Previous Version | Text Only | Print | Product List | Glossary On
Versions: 1 2 3 4 5 6 7 8 9 10 11 12 13 14 15 16 17 18 19 20 21 22 23 24 25 26 27 28 29 30 31 32 33 34 35 36 37 38 39 40 41 42 43 44 45 46 47 48 49 50
000
ASUS44 KLIX 190811
RWRLIX
NEW ORLEANS REGIONAL WEATHER ROUNDUP
NATIONAL WEATHER SERVICE NEW ORLEANS LA
200 AM CST SUN JAN 19 2020

NOTE: "FAIR" INDICATES FEW OR NO CLOUDS BELOW 12,000 FEET WITH NO
      SIGNIFICANT WEATHER AND/OR OBSTRUCTIONS TO VISIBILITY.
      SKY/WX - SKY CONDITION AND SIGNIFICANT WEATHER.
      TMP - AIR TEMPERATURE.     DP    - DEWPOINT TEMPERATURE.
      RH  - RELATIVE HUMIDITY.   PRES  - PRESSURE.
      HI  - HEAT INDEX.          WCI   - WIND CHILL INDEX.

*  THESE STATIONS ARE NOT NWS OR FAA STATIONS AND ARE NOT UNDER
   NWS QUALITY CONTROL.

LAZ038-040-048-061>063-065>067-069-190900-
SOUTHEAST LOUISIANA

CITY           SKY/WX    TMP DP  RH WIND       PRES   REMARKS
N.O. INTL ARPT CLOUDY    63  57  81 N10G18    30.18R
N.O. LAKEFRONT FAIR      62  56  80 N22       30.17S
N.O. DOWNTOWN* FAIR      62  57  83 N9        30.18R
RESERVE*       PTSUNNY   62  55  77 MISG      30.19S
SLIDELL        FAIR      62  54  74 N9        30.16S
BATON ROUGE    MOCLDY    58  48  69 N12G22    30.24R
BOOTHVILLE*    CLOUDY    66  64  94 NW6       30.14R
BELLE CHASSE*  FAIR      63  58  83 N12G22    30.14
BOGALUSA*      CLOUDY    60  52  74 N13G21    30.20R
GALLIANO*      LGT RAIN  63  58  84 N14       30.16R
NEW ROADS*     CLOUDY    54  43  66 N15G23    30.26R
GONZALES*      PTSUNNY   62  55  76 N15       30.21R
HAMMOND*       MOCLDY    57  54  88 N14       30.21R
HOUMA*         FAIR      61  56  84 N12       30.18R
PORT FOURCHON* CLOUDY    68  66  94 N9        30.13F

$$

MSZ070-080>082-190900-
SOUTHERN MISSISSIPPI

CITY           SKY/WX    TMP DP  RH WIND       PRES   REMARKS
MCCOMB         FAIR      52  34  50 N16       30.23R
GULFPORT       MOCLDY    61  56  83 N14G21    30.12F
BILOXI         FAIR      60  57  89 N13G21    30.12F
PASCAGOULA     FAIR      63  59  87 N9        30.12S

$$

COASTAL OBSERVATIONS
LAKE AND NEARSHORE STATIONS

STATION/POSITION TIME  SKY/WX   TEMP    WIND        PRES    WAVE
                                AIR SEA DIR/SP/G            HT/PER
                 (UTC)          (F)     (DEG/KT/KT) (MB)    (FT/S)
WAVELAND YACHT   0730            63 64   10/ 15/ 19 1020.4
GRAND ISLE       0724               65  330/  9/ 11   N/A
SOUTHWEST PASS   0724            62 53  290/  6/  8 1018.5
NEW CANAL        0724            62 65   10/ 16/ 19 1020.7
SHELL BEACH      0724            63 68  350/ 21/ 24 1020.5

OFFSHORE STATIONS

STATION/POSITION TIME  SKY/WX   TEMP    WIND        PRES    WAVE
                                AIR SEA DIR/SP/G            HT/PER
                 (UTC)          (F)     (DEG/KT/KT) (MB)    (FT/S)
64 S DAUPHIN ISL 0750            72 71  260/  6/ 10 1019.6    6/ 8

$$




USA.gov is the U.S. government's official web portal to all federal, state and local government web resources and services.